EN

Hourly Weather Bolshoe Agishevo

Today, 31 October, Saturday

Time Temperature Precipitation Wind Pressure Humidity
00:00 +6°C° 0 mm 1 mps 748 mmHg 88%
01:00 +6°C° 0 mm 1 mps 748 mmHg 90%
02:00 +5°C° 0 mm 1 mps 748 mmHg 91%
03:00 +5°C° 0 mm 1 mps 748 mmHg 93%
04:00 +5°C° 0 mm 1 mps 748 mmHg 93%
05:00 +5°C° 0 mm 1 mps 748 mmHg 94%
06:00 +5°C° 0 mm 1 mps 748 mmHg 94%
07:00 +5°C° 0 mm 1 mps 748 mmHg 93%
08:00 +5°C° 0 mm 2 mps 748 mmHg 93%
09:00 +5°C° 0 mm 2 mps 748 mmHg 92%
10:00 +6°C° 0 mm 2 mps 749 mmHg 89%
11:00 +7°C° 0 mm 2 mps 749 mmHg 85%
12:00 +8°C° 0 mm 2 mps 749 mmHg 82%
13:00 +8°C° 0 mm 2 mps 749 mmHg 82%
14:00 +8°C° 0 mm 2 mps 749 mmHg 82%
15:00 +8°C° 0 mm 3 mps 749 mmHg 82%
16:00 +8°C° 0 mm 3 mps 750 mmHg 85%
17:00 +7°C° 0 mm 3 mps 750 mmHg 87%
18:00 +7°C° 0 mm 3 mps 750 mmHg 90%
19:00 +7°C° 0 mm 3 mps 750 mmHg 90%
20:00 +7°C° 0 mm 3 mps 751 mmHg 90%
21:00 +7°C° 0 mm 3 mps 751 mmHg 89%
22:00 +5°C° 0 mm 3 mps 751 mmHg 90%
23:00 +5°C° 0 mm 3 mps 751 mmHg 91%

Tomorrow, 1 November, Sunday

Time Temperature Precipitation Wind Pressure Humidity
00:00 +4°C° 0 mm 4 mps 751 mmHg 92%
01:00 +4°C° 0 mm 4 mps 751 mmHg 93%
02:00 +4°C° 0 mm 4 mps 752 mmHg 93%
03:00 +3°C° 0 mm 4 mps 752 mmHg 94%
04:00 +3°C° 0 mm 4 mps 752 mmHg 94%
05:00 +3°C° 0 mm 4 mps 752 mmHg 94%
06:00 +3°C° 0 mm 4 mps 752 mmHg 94%
07:00 +3°C° 0 mm 5 mps 752 mmHg 92%
08:00 +3°C° 0 mm 5 mps 752 mmHg 91%
09:00 +5°C° 0 mm 5 mps 752 mmHg 89%
10:00 +5°C° 0 mm 5 mps 752 mmHg 88%
11:00 +5°C° 0 mm 5 mps 752 mmHg 86%
12:00 +6°C° 0 mm 5 mps 752 mmHg 85%
13:00 +6°C° 0.3 mm 5 mps 752 mmHg 86%
14:00 +6°C° 0.3 mm 5 mps 752 mmHg 87%
15:00 +6°C° 0.3 mm 5 mps 752 mmHg 88%
16:00 +6°C° 1.1 mm 5 mps 752 mmHg 89%
17:00 +6°C° 1.1 mm 5 mps 752 mmHg 91%
18:00 +5°C° 1.1 mm 5 mps 752 mmHg 93%
19:00 +5°C° 0.3 mm 4 mps 752 mmHg 93%
20:00 +6°C° 0.3 mm 4 mps 752 mmHg 93%
21:00 +6°C° 0.3 mm 4 mps 752 mmHg 93%
22:00 +6°C° 0.1 mm 4 mps 752 mmHg 93%
23:00 +7°C° 0.1 mm 3 mps 752 mmHg 93%

Day after tomorrow, 2 November, Monday

Time Temperature Precipitation Wind Pressure Humidity
00:00 +7°C° 0.1 mm 3 mps 752 mmHg 93%
01:00 +7°C° 0 mm 3 mps 751 mmHg 93%
02:00 +7°C° 0 mm 3 mps 751 mmHg 93%
03:00 +7°C° 0 mm 3 mps 751 mmHg 93%
04:00 +5°C° 0 mm 3 mps 751 mmHg 92%
05:00 +5°C° 0 mm 3 mps 751 mmHg 92%
06:00 +5°C° 0 mm 3 mps 751 mmHg 91%
07:00 +5°C° 0 mm 4 mps 751 mmHg 90%
08:00 +5°C° 0 mm 4 mps 751 mmHg 89%
09:00 +5°C° 0 mm 5 mps 751 mmHg 87%
10:00 +6°C° 0 mm 5 mps 751 mmHg 86%
11:00 +6°C° 0 mm 4 mps 751 mmHg 85%
12:00 +6°C° 0 mm 4 mps 751 mmHg 83%
13:00 +6°C° 0.3 mm 4 mps 751 mmHg 84%
14:00 +6°C° 0.3 mm 4 mps 751 mmHg 85%
15:00 +6°C° 0.3 mm 4 mps 751 mmHg 86%
16:00 +6°C° 0 mm 4 mps 751 mmHg 87%
17:00 +5°C° 0 mm 3 mps 751 mmHg 88%
18:00 +5°C° 0 mm 3 mps 751 mmHg 89%
19:00 +5°C° 0 mm 3 mps 751 mmHg 90%
20:00 +5°C° 0 mm 3 mps 751 mmHg 91%
21:00 +4°C° 0 mm 3 mps 751 mmHg 92%
22:00 +4°C° 0 mm 3 mps 751 mmHg 92%
23:00 +4°C° 0 mm 3 mps 751 mmHg 93%

3 November, Tuesday

Time Temperature Precipitation Wind Pressure Humidity
00:00 +4°C° 0 mm 3 mps 751 mmHg 93%
01:00 +4°C° 0 mm 3 mps 751 mmHg 92%
02:00 +4°C° 0 mm 3 mps 751 mmHg 91%
03:00 +4°C° 0 mm 4 mps 751 mmHg 91%
04:00 +4°C° 0 mm 3 mps 751 mmHg 90%
05:00 +4°C° 0 mm 3 mps 751 mmHg 89%
06:00 +4°C° 0 mm 3 mps 752 mmHg 89%
07:00 +4°C° 0.1 mm 3 mps 752 mmHg 89%
08:00 +4°C° 0.1 mm 3 mps 752 mmHg 89%
09:00 +5°C° 0.1 mm 4 mps 752 mmHg 90%
10:00 +5°C° 0.1 mm 3 mps 752 mmHg 88%
11:00 +7°C° 0.1 mm 3 mps 752 mmHg 87%
12:00 +7°C° 0.1 mm 3 mps 752 mmHg 85%
13:00 +7°C° 0 mm 3 mps 752 mmHg 85%
14:00 +8°C° 0 mm 3 mps 752 mmHg 84%
15:00 +8°C° 0 mm 3 mps 753 mmHg 84%
16:00 +8°C° 0 mm 3 mps 753 mmHg 87%
17:00 +7°C° 0 mm 3 mps 753 mmHg 90%
18:00 +7°C° 0 mm 3 mps 753 mmHg 93%
19:00 +6°C° 0 mm 2 mps 753 mmHg 93%
20:00 +6°C° 0 mm 2 mps 753 mmHg 94%
21:00 +6°C° 0 mm 2 mps 753 mmHg 95%
22:00 +6°C° 0 mm 2 mps 753 mmHg 95%
23:00 +7°C° 0 mm 1 mps 753 mmHg 95%

4 November, Wednesday

Time Temperature Precipitation Wind Pressure Humidity
00:00 +6°C° 0 mm 1 mps 754 mmHg 96%
01:00 +6°C° 0 mm 1 mps 754 mmHg 96%
02:00 +6°C° 0 mm 1 mps 754 mmHg 96%
03:00 +6°C° 0 mm 1 mps 754 mmHg 96%
04:00 +6°C° 0 mm 1 mps 754 mmHg 96%
05:00 +6°C° 0 mm 1 mps 754 mmHg 96%
06:00 +5°C° 0 mm 1 mps 754 mmHg 96%
07:00 +6°C° 0 mm 1 mps 754 mmHg 95%
08:00 +6°C° 0 mm 1 mps 755 mmHg 95%
09:00 +7°C° 0 mm 1 mps 755 mmHg 94%
10:00 +7°C° 0 mm 0 mps 755 mmHg 90%
11:00 +8°C° 0 mm 0 mps 755 mmHg 85%
12:00 +9°C° 0 mm 0 mps 755 mmHg 81%
13:00 +9°C° 0 mm 0 mps 755 mmHg 81%
14:00 +10°C° 0 mm 1 mps 755 mmHg 81%
15:00 +10°C° 0 mm 1 mps 756 mmHg 81%
16:00 +9°C° 0 mm 1 mps 756 mmHg 85%
17:00 +8°C° 0 mm 1 mps 756 mmHg 89%
18:00 +7°C° 0 mm 1 mps 756 mmHg 93%
19:00 +7°C° 0 mm 1 mps 756 mmHg 93%
20:00 +7°C° 0 mm 1 mps 756 mmHg 94%
21:00 +7°C° 0 mm 1 mps 756 mmHg 94%
22:00 +6°C° 0 mm 1 mps 756 mmHg 94%
23:00 +6°C° 0 mm 1 mps 756 mmHg 94%

5 November, Thursday

Time Temperature Precipitation Wind Pressure Humidity
00:00 +6°C° 0 mm 1 mps 756 mmHg 95%
01:00 +6°C° 0 mm 1 mps 756 mmHg 95%
02:00 +5°C° 0 mm 1 mps 756 mmHg 95%
03:00 +5°C° 0 mm 1 mps 756 mmHg 95%
04:00 +5°C° 0 mm 1 mps 756 mmHg 95%
05:00 +4°C° 0 mm 0 mps 756 mmHg 95%
06:00 +4°C° 0 mm 0 mps 756 mmHg 95%
07:00 +4°C° 0 mm 0 mps 756 mmHg 95%
08:00 +5°C° 0 mm 0 mps 756 mmHg 95%
09:00 +5°C° 0 mm 0 mps 756 mmHg 94%
10:00 +7°C° 0 mm 1 mps 756 mmHg 90%
11:00 +8°C° 0 mm 1 mps 756 mmHg 86%
12:00 +9°C° 0 mm 1 mps 756 mmHg 82%
13:00 +8°C° 0 mm 2 mps 756 mmHg 82%
14:00 +8°C° 0 mm 2 mps 756 mmHg 81%
15:00 +8°C° 0 mm 2 mps 756 mmHg 81%
16:00 +8°C° 0 mm 2 mps 755 mmHg 84%
17:00 +7°C° 0 mm 2 mps 755 mmHg 87%
18:00 +7°C° 0 mm 2 mps 755 mmHg 91%
19:00 +6°C° 0 mm 2 mps 755 mmHg 92%
20:00 +6°C° 0 mm 2 mps 755 mmHg 93%
21:00 +5°C° 0 mm 2 mps 755 mmHg 93%
22:00 +5°C° 0 mm 2 mps 755 mmHg 94%
23:00 +6°C° 0 mm 1 mps 755 mmHg 95%
Show more